Year,Month,Day,Hour,Minute,Value (Times are PST for temperature in C)
2011,07,05,00,00,12.80
2011,07,05,00,01,12.80
2011,07,05,00,02,12.90
2011,07,05,00,03,12.90
2011,07,05,00,04,12.90
2011,07,05,00,05,12.90
2011,07,05,00,06,12.90
2011,07,05,00,07,12.90
2011,07,05,00,08,13.00
2011,07,05,00,09,13.00
2011,07,05,00,10,12.90
2011,07,05,00,11,12.90
2011,07,05,00,12,12.80
2011,07,05,00,13,12.70
2011,07,05,00,14,12.70
2011,07,05,00,15,12.60
2011,07,05,00,16,12.50
2011,07,05,00,17,12.40
2011,07,05,00,18,12.40
2011,07,05,00,19,12.30
2011,07,05,00,20,12.30
2011,07,05,00,21,12.30
2011,07,05,00,22,12.30
2011,07,05,00,23,12.30
2011,07,05,00,24,12.20
2011,07,05,00,25,12.20
2011,07,05,00,26,12.20
2011,07,05,00,27,12.10
2011,07,05,00,28,12.20
2011,07,05,00,29,12.30
2011,07,05,00,30,12.30
2011,07,05,00,31,12.40
2011,07,05,00,32,12.50
2011,07,05,00,33,12.50
2011,07,05,00,34,12.60
2011,07,05,00,35,12.70
2011,07,05,00,36,12.80
2011,07,05,00,37,12.90
2011,07,05,00,38,13.00
2011,07,05,00,39,13.10
2011,07,05,00,40,13.10
2011,07,05,00,41,13.10
2011,07,05,00,42,13.00
2011,07,05,00,43,12.90
2011,07,05,00,44,12.80
2011,07,05,00,45,12.60
2011,07,05,00,46,12.50
2011,07,05,00,47,12.40
2011,07,05,00,48,12.30
2011,07,05,00,49,12.30
2011,07,05,00,50,12.30
2011,07,05,00,51,12.30
2011,07,05,00,52,12.20
2011,07,05,00,53,12.20
2011,07,05,00,54,12.10
2011,07,05,00,55,12.10
2011,07,05,00,56,12.00
2011,07,05,00,57,12.00
2011,07,05,00,58,11.90
2011,07,05,00,59,11.80
2011,07,05,01,00,11.70
2011,07,05,01,01,11.60
2011,07,05,01,02,11.50
2011,07,05,01,03,11.50
2011,07,05,01,04,11.40
2011,07,05,01,05,11.40
2011,07,05,01,06,11.40
2011,07,05,01,07,11.50
2011,07,05,01,08,11.50
2011,07,05,01,09,11.40
2011,07,05,01,10,11.40
2011,07,05,01,11,11.30
2011,07,05,01,12,11.30
2011,07,05,01,13,11.30
2011,07,05,01,14,11.30
2011,07,05,01,15,11.30
2011,07,05,01,16,11.30
2011,07,05,01,17,11.30
2011,07,05,01,18,11.30
2011,07,05,01,19,11.30
2011,07,05,01,20,11.40
2011,07,05,01,21,11.40
2011,07,05,01,22,11.40
2011,07,05,01,23,11.40
2011,07,05,01,24,11.40
2011,07,05,01,25,11.30
2011,07,05,01,26,11.30
2011,07,05,01,27,11.30
2011,07,05,01,28,11.30
2011,07,05,01,29,11.20
2011,07,05,01,30,11.20
2011,07,05,01,31,11.20
2011,07,05,01,32,11.20
2011,07,05,01,33,11.10
2011,07,05,01,34,11.10
2011,07,05,01,35,11.10
2011,07,05,01,36,11.10
2011,07,05,01,37,11.00
2011,07,05,01,38,10.90
2011,07,05,01,39,10.90
2011,07,05,01,40,10.80
2011,07,05,01,41,10.80
2011,07,05,01,42,10.80
2011,07,05,01,43,10.80
2011,07,05,01,44,10.80
2011,07,05,01,45,10.90
2011,07,05,01,46,10.90
2011,07,05,01,47,10.90
2011,07,05,01,48,10.80
2011,07,05,01,49,10.70
2011,07,05,01,50,10.70
2011,07,05,01,51,10.70
2011,07,05,01,52,10.80
2011,07,05,01,53,10.90
2011,07,05,01,54,11.10
2011,07,05,01,55,11.20
2011,07,05,01,56,11.40
2011,07,05,01,57,11.50
2011,07,05,01,58,11.60
2011,07,05,01,59,11.70
2011,07,05,02,00,11.80
2011,07,05,02,01,12.00
2011,07,05,02,02,12.00
2011,07,05,02,03,11.90
2011,07,05,02,04,11.80
2011,07,05,02,05,11.70
2011,07,05,02,06,11.60
2011,07,05,02,07,11.60
2011,07,05,02,08,11.60
2011,07,05,02,09,11.60
2011,07,05,02,10,11.60
2011,07,05,02,11,11.50
2011,07,05,02,12,11.50
2011,07,05,02,13,11.40
2011,07,05,02,14,11.40
2011,07,05,02,15,11.40
2011,07,05,02,16,11.40
2011,07,05,02,17,11.40
2011,07,05,02,18,11.30
2011,07,05,02,19,11.20
2011,07,05,02,20,11.10
2011,07,05,02,21,11.00
2011,07,05,02,22,10.90
2011,07,05,02,23,10.90
2011,07,05,02,24,10.80
2011,07,05,02,25,10.90
2011,07,05,02,26,10.90
2011,07,05,02,27,10.90
2011,07,05,02,28,10.90
2011,07,05,02,29,10.80
2011,07,05,02,30,10.80
2011,07,05,02,31,10.80
2011,07,05,02,32,10.70
2011,07,05,02,33,10.70
2011,07,05,02,34,10.70
2011,07,05,02,35,10.80
2011,07,05,02,36,10.80
2011,07,05,02,37,10.80
2011,07,05,02,38,10.90
2011,07,05,02,39,10.90
2011,07,05,02,40,11.00
2011,07,05,02,41,11.00
2011,07,05,02,42,11.00
2011,07,05,02,43,10.90
2011,07,05,02,44,10.90
2011,07,05,02,45,10.90
2011,07,05,02,46,11.00
2011,07,05,02,47,11.10
2011,07,05,02,48,11.20
2011,07,05,02,49,11.20
2011,07,05,02,50,11.30
2011,07,05,02,51,11.30
2011,07,05,02,52,11.40
2011,07,05,02,53,11.40
2011,07,05,02,54,11.50
2011,07,05,02,55,11.60
2011,07,05,02,56,11.80
2011,07,05,02,57,11.80
2011,07,05,02,58,11.80
2011,07,05,02,59,11.80
2011,07,05,03,00,11.90
2011,07,05,03,01,11.90
2011,07,05,03,02,11.90
2011,07,05,03,03,11.80
2011,07,05,03,04,11.60
2011,07,05,03,05,11.40
2011,07,05,03,06,11.30
2011,07,05,03,07,11.10
2011,07,05,03,08,11.10
2011,07,05,03,09,11.10
2011,07,05,03,10,11.00
2011,07,05,03,11,10.90
2011,07,05,03,12,10.90
2011,07,05,03,13,10.80
2011,07,05,03,14,10.70
2011,07,05,03,15,10.70
2011,07,05,03,16,10.60
2011,07,05,03,17,10.70
2011,07,05,03,18,10.70
2011,07,05,03,19,10.80
2011,07,05,03,20,10.80
2011,07,05,03,21,10.70
2011,07,05,03,22,10.70
2011,07,05,03,23,10.80
2011,07,05,03,24,10.80
2011,07,05,03,25,10.80
2011,07,05,03,26,10.90
2011,07,05,03,27,11.10
2011,07,05,03,28,11.30
2011,07,05,03,29,11.50
2011,07,05,03,30,11.60
2011,07,05,03,31,11.60
2011,07,05,03,32,11.60
2011,07,05,03,33,11.50
2011,07,05,03,34,11.40
2011,07,05,03,35,11.40
2011,07,05,03,36,11.40
2011,07,05,03,37,11.30
2011,07,05,03,38,11.30
2011,07,05,03,39,11.30
2011,07,05,03,40,11.40
2011,07,05,03,41,11.60
2011,07,05,03,42,11.70
2011,07,05,03,43,11.70
2011,07,05,03,44,11.70
2011,07,05,03,45,11.70
2011,07,05,03,46,11.70
2011,07,05,03,47,11.70
2011,07,05,03,48,11.60
2011,07,05,03,49,11.50
2011,07,05,03,50,11.50
2011,07,05,03,51,11.50
2011,07,05,03,52,11.60
2011,07,05,03,53,11.60
2011,07,05,03,54,11.60
2011,07,05,03,55,11.60
2011,07,05,03,56,11.60
2011,07,05,03,57,11.60
2011,07,05,03,58,11.50
2011,07,05,03,59,11.60
2011,07,05,04,00,11.60
2011,07,05,04,01,11.60
2011,07,05,04,02,11.60
2011,07,05,04,03,11.70
2011,07,05,04,04,11.80
2011,07,05,04,05,11.90
2011,07,05,04,06,12.00
2011,07,05,04,07,12.00
2011,07,05,04,08,12.10
2011,07,05,04,09,12.00
2011,07,05,04,10,12.00
2011,07,05,04,11,12.00
2011,07,05,04,12,11.90
2011,07,05,04,13,11.80
2011,07,05,04,14,11.70
2011,07,05,04,15,11.70
2011,07,05,04,16,11.80
2011,07,05,04,17,11.80
2011,07,05,04,18,11.80
2011,07,05,04,19,11.80
2011,07,05,04,20,11.80
2011,07,05,04,21,11.80
2011,07,05,04,22,11.80
2011,07,05,04,23,11.80
2011,07,05,04,24,11.80
2011,07,05,04,25,11.80
2011,07,05,04,26,11.80
2011,07,05,04,27,11.80
2011,07,05,04,28,11.70
2011,07,05,04,29,11.60
2011,07,05,04,30,11.50
2011,07,05,04,31,11.40
2011,07,05,04,32,11.30
2011,07,05,04,33,11.30
2011,07,05,04,34,11.20
2011,07,05,04,35,11.30
2011,07,05,04,36,11.30
2011,07,05,04,37,11.30
2011,07,05,04,38,11.30
2011,07,05,04,39,11.30
2011,07,05,04,40,11.30
2011,07,05,04,41,11.40
2011,07,05,04,42,11.40
2011,07,05,04,43,11.40
2011,07,05,04,44,11.40
2011,07,05,04,45,11.40
2011,07,05,04,46,11.40
2011,07,05,04,47,11.40
2011,07,05,04,48,11.40
2011,07,05,04,49,11.30
2011,07,05,04,50,11.30
2011,07,05,04,51,11.20
2011,07,05,04,52,11.20
2011,07,05,04,53,11.10
2011,07,05,04,54,11.10
2011,07,05,04,55,11.10
2011,07,05,04,56,11.10
2011,07,05,04,57,11.00
2011,07,05,04,58,11.00
2011,07,05,04,59,11.10
2011,07,05,05,00,11.20
2011,07,05,05,01,11.20
2011,07,05,05,02,11.30
2011,07,05,05,03,11.30
2011,07,05,05,04,11.30
2011,07,05,05,05,11.20
2011,07,05,05,06,11.10
2011,07,05,05,07,11.00
2011,07,05,05,08,10.90
2011,07,05,05,09,10.80
2011,07,05,05,10,10.70
2011,07,05,05,11,10.60
2011,07,05,05,12,10.60
2011,07,05,05,13,10.70
2011,07,05,05,14,10.70
2011,07,05,05,15,10.70
2011,07,05,05,16,10.80
2011,07,05,05,17,10.70
2011,07,05,05,18,10.70
2011,07,05,05,19,10.60
2011,07,05,05,20,10.60
2011,07,05,05,21,10.50
2011,07,05,05,22,10.50
2011,07,05,05,23,10.40
2011,07,05,05,24,10.40
2011,07,05,05,25,10.50
2011,07,05,05,26,10.60
2011,07,05,05,27,10.60
2011,07,05,05,28,10.60
2011,07,05,05,29,10.60
2011,07,05,05,30,10.60
2011,07,05,05,31,10.60
2011,07,05,05,32,10.50
2011,07,05,05,33,10.50
2011,07,05,05,34,10.30
2011,07,05,05,35,10.20
2011,07,05,05,36,10.10
2011,07,05,05,37,10.00
2011,07,05,05,38,9.90
2011,07,05,05,39,9.90
2011,07,05,05,40,9.90
2011,07,05,05,41,9.90
2011,07,05,05,42,9.90
2011,07,05,05,43,10.00
2011,07,05,05,44,10.00
2011,07,05,05,45,10.00
2011,07,05,05,46,10.00
2011,07,05,05,47,10.00
2011,07,05,05,48,10.00
2011,07,05,05,49,10.00
2011,07,05,05,50,10.00
2011,07,05,05,51,10.10
2011,07,05,05,52,10.20
2011,07,05,05,53,10.20
2011,07,05,05,54,10.30
2011,07,05,05,55,10.30
2011,07,05,05,56,10.30
2011,07,05,05,57,10.30
2011,07,05,05,58,10.30
2011,07,05,05,59,10.30
2011,07,05,06,00,10.30
2011,07,05,06,01,10.30
2011,07,05,06,02,10.30
2011,07,05,06,03,10.30
2011,07,05,06,04,10.30
2011,07,05,06,05,10.20
2011,07,05,06,06,10.20
2011,07,05,06,07,10.10
2011,07,05,06,08,10.10
2011,07,05,06,09,10.10
2011,07,05,06,10,10.00
2011,07,05,06,11,9.90
2011,07,05,06,12,9.90
2011,07,05,06,13,9.90
2011,07,05,06,14,9.80
2011,07,05,06,15,9.80
2011,07,05,06,16,9.80
2011,07,05,06,17,9.80
2011,07,05,06,18,9.90
2011,07,05,06,19,10.00
2011,07,05,06,20,10.10
2011,07,05,06,21,10.10
2011,07,05,06,22,10.20
2011,07,05,06,23,10.20
2011,07,05,06,24,10.20
2011,07,05,06,25,10.20
2011,07,05,06,26,10.30
2011,07,05,06,27,10.30
2011,07,05,06,28,10.40
2011,07,05,06,29,10.40
2011,07,05,06,30,10.50
2011,07,05,06,31,10.60
2011,07,05,06,32,10.60
2011,07,05,06,33,10.70
2011,07,05,06,34,10.70
2011,07,05,06,35,10.80
2011,07,05,06,36,10.80
2011,07,05,06,37,10.90
2011,07,05,06,38,11.00
2011,07,05,06,39,11.00
2011,07,05,06,40,11.10
2011,07,05,06,41,11.20
2011,07,05,06,42,11.30
2011,07,05,06,43,11.40
2011,07,05,06,44,11.50
2011,07,05,06,45,11.60
2011,07,05,06,46,11.60
2011,07,05,06,47,11.70
2011,07,05,06,48,11.80
2011,07,05,06,49,11.90
2011,07,05,06,50,12.00
2011,07,05,06,51,12.10
2011,07,05,06,52,12.20
2011,07,05,06,53,12.30
2011,07,05,06,54,12.40
2011,07,05,06,55,12.50
2011,07,05,06,56,12.50
2011,07,05,06,57,12.60
2011,07,05,06,58,12.70
2011,07,05,06,59,12.80
2011,07,05,07,00,12.90
2011,07,05,07,01,13.00
2011,07,05,07,02,13.10
2011,07,05,07,03,13.20
2011,07,05,07,04,13.20
2011,07,05,07,05,13.30
2011,07,05,07,06,13.30
2011,07,05,07,07,13.40
2011,07,05,07,08,13.40
2011,07,05,07,09,13.50
2011,07,05,07,10,13.60
2011,07,05,07,11,13.70
2011,07,05,07,12,13.70
2011,07,05,07,13,13.90
2011,07,05,07,14,14.10
2011,07,05,07,15,14.20
2011,07,05,07,16,14.50
2011,07,05,07,17,14.70
2011,07,05,07,18,14.80
2011,07,05,07,19,15.00
2011,07,05,07,20,15.00
2011,07,05,07,21,15.10
2011,07,05,07,22,15.30
2011,07,05,07,23,15.60
2011,07,05,07,24,15.80
2011,07,05,07,25,16.00
2011,07,05,07,26,16.10
2011,07,05,07,27,16.20
2011,07,05,07,28,16.30
2011,07,05,07,29,16.30
2011,07,05,07,30,16.40
2011,07,05,07,31,16.60
2011,07,05,07,32,16.70
2011,07,05,07,33,16.80
2011,07,05,07,34,17.00
2011,07,05,07,35,17.10
2011,07,05,07,36,17.20
2011,07,05,07,37,17.20
2011,07,05,07,38,17.30
2011,07,05,07,39,17.30
2011,07,05,07,40,17.40
2011,07,05,07,41,17.50
2011,07,05,07,42,17.60
2011,07,05,07,43,17.60
2011,07,05,07,44,17.70
2011,07,05,07,45,17.70
2011,07,05,07,46,17.70
2011,07,05,07,47,17.70
2011,07,05,07,48,17.70
2011,07,05,07,49,17.70
2011,07,05,07,50,17.70
2011,07,05,07,51,17.70
2011,07,05,07,52,17.70
2011,07,05,07,53,17.70
2011,07,05,07,54,17.80
2011,07,05,07,55,17.80
2011,07,05,07,56,17.80
2011,07,05,07,57,17.80
2011,07,05,07,58,17.80
2011,07,05,07,59,17.80
2011,07,05,08,00,17.80
2011,07,05,08,01,17.80
2011,07,05,08,02,17.80
2011,07,05,08,03,17.80
2011,07,05,08,04,17.80
2011,07,05,08,05,17.80
2011,07,05,08,06,17.80
2011,07,05,08,07,17.80
2011,07,05,08,08,17.80
2011,07,05,08,09,17.80
2011,07,05,08,10,17.80
2011,07,05,08,11,17.80
2011,07,05,08,12,17.80
2011,07,05,08,13,17.80
2011,07,05,08,14,17.90
2011,07,05,08,15,17.90
2011,07,05,08,16,18.00
2011,07,05,08,17,18.00
2011,07,05,08,18,18.10
2011,07,05,08,19,18.10
2011,07,05,08,20,18.10
2011,07,05,08,21,18.10
2011,07,05,08,22,18.10
2011,07,05,08,23,18.10
2011,07,05,08,24,18.10
2011,07,05,08,25,18.20
2011,07,05,08,26,18.20
2011,07,05,08,27,18.30
2011,07,05,08,28,18.30
2011,07,05,08,29,18.30
2011,07,05,08,30,18.30
2011,07,05,08,31,18.40
2011,07,05,08,32,18.40
2011,07,05,08,33,18.40
2011,07,05,08,34,18.40
2011,07,05,08,35,18.30
2011,07,05,08,36,18.20
2011,07,05,08,37,18.20
2011,07,05,08,38,18.20
2011,07,05,08,39,18.20
2011,07,05,08,40,18.20
2011,07,05,08,41,18.10
2011,07,05,08,42,18.00
2011,07,05,08,43,17.90
2011,07,05,08,44,17.80
2011,07,05,08,45,17.80
2011,07,05,08,46,17.70
2011,07,05,08,47,17.70
2011,07,05,08,48,17.70
2011,07,05,08,49,17.70
2011,07,05,08,50,17.70
2011,07,05,08,51,17.80
2011,07,05,08,52,17.70
2011,07,05,08,53,17.70
2011,07,05,08,54,17.70
2011,07,05,08,55,17.70
2011,07,05,08,56,17.70
2011,07,05,08,57,17.70
2011,07,05,08,58,17.60
2011,07,05,08,59,17.60
2011,07,05,09,00,17.50
2011,07,05,09,01,17.40
2011,07,05,09,02,17.40
2011,07,05,09,03,17.40
2011,07,05,09,04,17.30
2011,07,05,09,05,17.30
2011,07,05,09,06,17.30
2011,07,05,09,07,17.30
2011,07,05,09,08,17.30
2011,07,05,09,09,17.20
2011,07,05,09,10,17.20
2011,07,05,09,11,17.20
2011,07,05,09,12,17.20
2011,07,05,09,13,17.20
2011,07,05,09,14,17.20
2011,07,05,09,15,17.20
2011,07,05,09,16,17.20
2011,07,05,09,17,17.20
2011,07,05,09,18,17.20
2011,07,05,09,19,17.20
2011,07,05,09,20,17.20
2011,07,05,09,21,17.20
2011,07,05,09,22,17.20
2011,07,05,09,23,17.20
2011,07,05,09,24,17.10
2011,07,05,09,25,17.10
2011,07,05,09,26,17.20
2011,07,05,09,27,17.20
2011,07,05,09,28,17.30
2011,07,05,09,29,17.30
2011,07,05,09,30,17.40
2011,07,05,09,31,17.40
2011,07,05,09,32,17.50
2011,07,05,09,33,17.60
2011,07,05,09,34,17.60
2011,07,05,09,35,17.70
2011,07,05,09,36,17.80
2011,07,05,09,37,17.80
2011,07,05,09,38,17.80
2011,07,05,09,39,17.80
2011,07,05,09,40,17.70
2011,07,05,09,41,17.70
2011,07,05,09,42,17.70
2011,07,05,09,43,17.70
2011,07,05,09,44,17.70
2011,07,05,09,45,17.70
2011,07,05,09,46,17.70
2011,07,05,09,47,17.70
2011,07,05,09,48,17.80
2011,07,05,09,49,17.80
2011,07,05,09,50,17.80
2011,07,05,09,51,17.90
2011,07,05,09,52,17.90
2011,07,05,09,53,17.90
2011,07,05,09,54,17.90
2011,07,05,09,55,18.00
2011,07,05,09,56,18.20
2011,07,05,09,57,18.30
2011,07,05,09,58,18.30
2011,07,05,09,59,18.30
2011,07,05,10,00,18.30
2011,07,05,10,01,18.30
2011,07,05,10,02,18.20
2011,07,05,10,03,18.20
2011,07,05,10,04,18.20
2011,07,05,10,05,18.20
2011,07,05,10,06,18.30
2011,07,05,10,07,18.30
2011,07,05,10,08,18.30
2011,07,05,10,09,18.30
2011,07,05,10,10,18.30
2011,07,05,10,11,18.40
2011,07,05,10,12,18.40
2011,07,05,10,13,18.40
2011,07,05,10,14,18.40
2011,07,05,10,15,18.40
2011,07,05,10,16,18.40
2011,07,05,10,17,18.30
2011,07,05,10,18,18.40
2011,07,05,10,19,18.50
2011,07,05,10,20,18.50
2011,07,05,10,21,18.50
2011,07,05,10,22,18.50
2011,07,05,10,23,18.40
2011,07,05,10,24,18.40
2011,07,05,10,25,18.50
2011,07,05,10,26,18.60
2011,07,05,10,27,18.80
2011,07,05,10,28,18.90
2011,07,05,10,29,18.90
2011,07,05,10,30,18.90
2011,07,05,10,31,19.00
2011,07,05,10,32,19.10
2011,07,05,10,33,19.20
2011,07,05,10,34,19.20
2011,07,05,10,35,19.20
2011,07,05,10,36,19.30
2011,07,05,10,37,19.20
2011,07,05,10,38,19.20
2011,07,05,10,39,19.20
2011,07,05,10,40,19.20
2011,07,05,10,41,19.20
2011,07,05,10,42,19.20
2011,07,05,10,43,19.30
2011,07,05,10,44,19.30
2011,07,05,10,45,19.20
2011,07,05,10,46,19.20
2011,07,05,10,47,19.10
2011,07,05,10,48,19.10
2011,07,05,10,49,19.00
2011,07,05,10,50,18.90
2011,07,05,10,51,18.80
2011,07,05,10,52,18.80
2011,07,05,10,53,18.80
2011,07,05,10,54,18.80
2011,07,05,10,55,18.80
2011,07,05,10,56,18.80
2011,07,05,10,57,18.80
2011,07,05,10,58,18.80
2011,07,05,10,59,18.90
2011,07,05,11,00,19.00
2011,07,05,11,01,19.20
2011,07,05,11,02,19.30
2011,07,05,11,03,19.30
2011,07,05,11,04,19.30
2011,07,05,11,05,19.30
2011,07,05,11,06,19.20
2011,07,05,11,07,19.20
2011,07,05,11,08,19.30
2011,07,05,11,09,19.30
2011,07,05,11,10,19.40
2011,07,05,11,11,19.40
2011,07,05,11,12,19.30
2011,07,05,11,13,19.20
2011,07,05,11,14,19.20
2011,07,05,11,15,19.20
2011,07,05,11,16,19.20
2011,07,05,11,17,19.30
2011,07,05,11,18,19.40
2011,07,05,11,19,19.40
2011,07,05,11,20,19.50
2011,07,05,11,21,19.60
2011,07,05,11,22,19.50
2011,07,05,11,23,19.40
2011,07,05,11,24,19.40
2011,07,05,11,25,19.40
2011,07,05,11,26,19.40
2011,07,05,11,27,19.40
2011,07,05,11,28,19.40
2011,07,05,11,29,19.50
2011,07,05,11,30,19.50
2011,07,05,11,31,19.40
2011,07,05,11,32,19.40
2011,07,05,11,33,19.40
2011,07,05,11,34,19.50
2011,07,05,11,35,19.40
2011,07,05,11,36,19.40
2011,07,05,11,37,19.40
2011,07,05,11,38,19.40
2011,07,05,11,39,19.50
2011,07,05,11,40,19.50
2011,07,05,11,41,19.60
2011,07,05,11,42,19.80
2011,07,05,11,43,19.80
2011,07,05,11,44,19.80
2011,07,05,11,45,19.80
2011,07,05,11,46,19.90
2011,07,05,11,47,19.90
2011,07,05,11,48,20.00
2011,07,05,11,49,19.90
2011,07,05,11,50,19.80
2011,07,05,11,51,19.80
2011,07,05,11,52,19.80
2011,07,05,11,53,19.90
2011,07,05,11,54,20.00
2011,07,05,11,55,20.10
2011,07,05,11,56,20.20
2011,07,05,11,57,20.20
2011,07,05,11,58,20.30
2011,07,05,11,59,20.30
2011,07,05,12,00,20.20
2011,07,05,12,01,20.10
2011,07,05,12,02,19.90
2011,07,05,12,03,19.70
2011,07,05,12,04,19.60
2011,07,05,12,05,19.60
2011,07,05,12,06,19.50
2011,07,05,12,07,19.60
2011,07,05,12,08,19.70
2011,07,05,12,09,19.80
2011,07,05,12,10,19.80
2011,07,05,12,11,19.90
2011,07,05,12,12,19.90
2011,07,05,12,13,20.00
2011,07,05,12,14,20.10
2011,07,05,12,15,20.10
2011,07,05,12,16,20.20
2011,07,05,12,17,20.20
2011,07,05,12,18,20.30
2011,07,05,12,19,20.20
2011,07,05,12,20,20.20
2011,07,05,12,21,20.30
2011,07,05,12,22,20.30
2011,07,05,12,23,20.30
2011,07,05,12,24,20.30
2011,07,05,12,25,20.30
2011,07,05,12,26,20.40
2011,07,05,12,27,20.40
2011,07,05,12,28,20.20
2011,07,05,12,29,20.10
2011,07,05,12,30,20.10
2011,07,05,12,31,20.10
2011,07,05,12,32,20.20
2011,07,05,12,33,20.30
2011,07,05,12,34,20.30
2011,07,05,12,35,20.30
2011,07,05,12,36,20.40
2011,07,05,12,37,20.60
2011,07,05,12,38,20.50
2011,07,05,12,39,20.50
2011,07,05,12,40,20.40
2011,07,05,12,41,20.30
2011,07,05,12,42,20.30
2011,07,05,12,43,20.30
2011,07,05,12,44,20.30
2011,07,05,12,45,20.30
2011,07,05,12,46,20.40
2011,07,05,12,47,20.50
2011,07,05,12,48,20.50
2011,07,05,12,49,20.70
2011,07,05,12,50,20.90
2011,07,05,12,51,20.90
2011,07,05,12,52,20.80
2011,07,05,12,53,20.70
2011,07,05,12,54,20.60
2011,07,05,12,55,20.60
2011,07,05,12,56,20.50
2011,07,05,12,57,20.40
2011,07,05,12,58,20.30
2011,07,05,12,59,20.40
2011,07,05,13,00,20.40
2011,07,05,13,01,20.50
2011,07,05,13,02,20.50
2011,07,05,13,03,20.60
2011,07,05,13,04,20.60
2011,07,05,13,05,20.60
2011,07,05,13,06,20.60
2011,07,05,13,07,20.60
2011,07,05,13,08,20.70
2011,07,05,13,09,20.70
2011,07,05,13,10,20.70
2011,07,05,13,11,20.80
2011,07,05,13,12,20.80
2011,07,05,13,13,20.80
2011,07,05,13,14,20.90
2011,07,05,13,15,21.00
2011,07,05,13,16,21.00
2011,07,05,13,17,21.00
2011,07,05,13,18,21.00
2011,07,05,13,19,21.10
2011,07,05,13,20,21.20
2011,07,05,13,21,21.30
2011,07,05,13,22,21.30
2011,07,05,13,23,21.40
2011,07,05,13,24,21.30
2011,07,05,13,25,21.40
2011,07,05,13,26,21.40
2011,07,05,13,27,21.40
2011,07,05,13,28,21.40
2011,07,05,13,29,21.30
2011,07,05,13,30,21.40
2011,07,05,13,31,21.50
2011,07,05,13,32,21.60
2011,07,05,13,33,21.60
2011,07,05,13,34,21.50
2011,07,05,13,35,21.40
2011,07,05,13,36,21.60
2011,07,05,13,37,21.60
2011,07,05,13,38,21.60
2011,07,05,13,39,21.50
2011,07,05,13,40,21.40
2011,07,05,13,41,21.40
2011,07,05,13,42,21.40
2011,07,05,13,43,21.40
2011,07,05,13,44,21.30
2011,07,05,13,45,21.40
2011,07,05,13,46,21.40
2011,07,05,13,47,21.40
2011,07,05,13,48,21.60
2011,07,05,13,49,21.60
2011,07,05,13,50,21.60
2011,07,05,13,51,21.60
2011,07,05,13,52,21.50
2011,07,05,13,53,21.50
2011,07,05,13,54,21.50
2011,07,05,13,55,21.40
2011,07,05,13,56,21.50
2011,07,05,13,57,21.50
2011,07,05,13,58,21.50
2011,07,05,13,59,21.40
2011,07,05,14,00,21.50
2011,07,05,14,01,21.50
2011,07,05,14,02,21.50
2011,07,05,14,03,21.60
2011,07,05,14,04,21.70
2011,07,05,14,05,21.70
2011,07,05,14,06,21.60
2011,07,05,14,07,21.60
2011,07,05,14,08,21.60
2011,07,05,14,09,21.60
2011,07,05,14,10,21.70
2011,07,05,14,11,21.70
2011,07,05,14,12,21.80
2011,07,05,14,13,21.80
2011,07,05,14,14,21.80
2011,07,05,14,15,21.80
2011,07,05,14,16,21.80
2011,07,05,14,17,21.80
2011,07,05,14,18,21.90
2011,07,05,14,19,21.90
2011,07,05,14,20,21.90
2011,07,05,14,21,21.90
2011,07,05,14,22,21.90
2011,07,05,14,23,22.10
2011,07,05,14,24,22.20
2011,07,05,14,25,22.20
2011,07,05,14,26,22.10
2011,07,05,14,27,22.00
2011,07,05,14,28,22.00
2011,07,05,14,29,21.90
2011,07,05,14,30,21.90
2011,07,05,14,31,21.90
2011,07,05,14,32,21.80
2011,07,05,14,33,21.90
2011,07,05,14,34,21.90
2011,07,05,14,35,21.80
2011,07,05,14,36,21.80
2011,07,05,14,37,21.80
2011,07,05,14,38,21.80
2011,07,05,14,39,21.80
2011,07,05,14,40,21.80
2011,07,05,14,41,21.70
2011,07,05,14,42,21.60
2011,07,05,14,43,21.60
2011,07,05,14,44,21.60
2011,07,05,14,45,21.60
2011,07,05,14,46,21.80
2011,07,05,14,47,21.90
2011,07,05,14,48,21.90
2011,07,05,14,49,22.00
2011,07,05,14,50,22.10
2011,07,05,14,51,22.20
2011,07,05,14,52,22.20
2011,07,05,14,53,22.20
2011,07,05,14,54,22.20
2011,07,05,14,55,22.20
2011,07,05,14,56,22.20
2011,07,05,14,57,22.30
2011,07,05,14,58,22.30
2011,07,05,14,59,22.40
2011,07,05,15,00,22.50
2011,07,05,15,01,22.50
2011,07,05,15,02,22.60
2011,07,05,15,03,22.60
2011,07,05,15,04,22.60
2011,07,05,15,05,22.60
2011,07,05,15,06,22.60
2011,07,05,15,07,22.60
2011,07,05,15,08,22.50
2011,07,05,15,09,22.50
2011,07,05,15,10,22.60
2011,07,05,15,11,22.60
2011,07,05,15,12,22.70
2011,07,05,15,13,22.80
2011,07,05,15,14,22.80
2011,07,05,15,15,22.80
2011,07,05,15,16,22.70
2011,07,05,15,17,22.60
2011,07,05,15,18,22.60
2011,07,05,15,19,22.60
2011,07,05,15,20,22.70
2011,07,05,15,21,22.80
2011,07,05,15,22,22.80
2011,07,05,15,23,22.70
2011,07,05,15,24,22.60
2011,07,05,15,25,22.60
2011,07,05,15,26,22.50
2011,07,05,15,27,22.40
2011,07,05,15,28,22.40
2011,07,05,15,29,22.40
2011,07,05,15,30,22.50
2011,07,05,15,31,22.60
2011,07,05,15,32,22.60
2011,07,05,15,33,22.60
2011,07,05,15,34,22.80
2011,07,05,15,35,23.00
2011,07,05,15,36,23.10
2011,07,05,15,37,23.10
2011,07,05,15,38,23.10
2011,07,05,15,39,22.90
2011,07,05,15,40,22.80
2011,07,05,15,41,22.80
2011,07,05,15,42,22.80
2011,07,05,15,43,22.90
2011,07,05,15,44,22.90
2011,07,05,15,45,22.90
2011,07,05,15,46,22.80
2011,07,05,15,47,22.80
2011,07,05,15,48,22.90
2011,07,05,15,49,22.90
2011,07,05,15,50,23.00
2011,07,05,15,51,23.00
2011,07,05,15,52,23.00
2011,07,05,15,53,23.10
2011,07,05,15,54,23.00
2011,07,05,15,55,22.90
2011,07,05,15,56,22.90
2011,07,05,15,57,22.90
2011,07,05,15,58,22.90
2011,07,05,15,59,22.80
2011,07,05,16,00,22.80
2011,07,05,16,01,22.70
2011,07,05,16,02,22.70
2011,07,05,16,03,22.70
2011,07,05,16,04,22.70
2011,07,05,16,05,22.80
2011,07,05,16,06,22.80
2011,07,05,16,07,22.90
2011,07,05,16,08,22.90
2011,07,05,16,09,22.90
2011,07,05,16,10,23.10
2011,07,05,16,11,23.30
2011,07,05,16,12,23.50
2011,07,05,16,13,23.70
2011,07,05,16,14,23.80
2011,07,05,16,15,23.70
2011,07,05,16,16,23.70
2011,07,05,16,17,23.60
2011,07,05,16,18,23.60
2011,07,05,16,19,23.60
2011,07,05,16,20,23.60
2011,07,05,16,21,23.70
2011,07,05,16,22,23.80
2011,07,05,16,23,23.90
2011,07,05,16,24,23.90
2011,07,05,16,25,23.90
2011,07,05,16,26,23.80
2011,07,05,16,27,23.80
2011,07,05,16,28,23.80
2011,07,05,16,29,23.70
2011,07,05,16,30,23.70
2011,07,05,16,31,23.60
2011,07,05,16,32,23.60
2011,07,05,16,33,23.60
2011,07,05,16,34,23.60
2011,07,05,16,35,23.50
2011,07,05,16,36,23.40
2011,07,05,16,37,23.40
2011,07,05,16,38,23.40
2011,07,05,16,39,23.40
2011,07,05,16,40,23.40
2011,07,05,16,41,23.50
2011,07,05,16,42,23.60
2011,07,05,16,43,23.70
2011,07,05,16,44,23.70
2011,07,05,16,45,23.70
2011,07,05,16,46,23.70
2011,07,05,16,47,23.80
2011,07,05,16,48,23.90
2011,07,05,16,49,23.90
2011,07,05,16,50,23.80
2011,07,05,16,51,23.80
2011,07,05,16,52,23.70
2011,07,05,16,53,23.70
2011,07,05,16,54,23.70
2011,07,05,16,55,23.70
2011,07,05,16,56,23.70
2011,07,05,16,57,23.70
2011,07,05,16,58,23.70
2011,07,05,16,59,23.70
2011,07,05,17,00,23.80
2011,07,05,17,01,23.80
2011,07,05,17,02,23.80
2011,07,05,17,03,23.70
2011,07,05,17,04,23.60
2011,07,05,17,05,23.60
2011,07,05,17,06,23.50
2011,07,05,17,07,23.50
2011,07,05,17,08,23.60
2011,07,05,17,09,23.80
2011,07,05,17,10,23.80
2011,07,05,17,11,23.80
2011,07,05,17,12,23.80
2011,07,05,17,13,23.80
2011,07,05,17,14,23.80
2011,07,05,17,15,23.80
2011,07,05,17,16,23.70
2011,07,05,17,17,23.70
2011,07,05,17,18,23.70
2011,07,05,17,19,23.80
2011,07,05,17,20,24.00